Tracking 18851 objects as of 25-Nov-2017
HD Live streaming from Space Station
objects crossing your sky now

COSMOS 2242

Track COSMOS 2242 now!
10-day predictions
COSMOS 2242 is classified as:


NORAD ID: 22626
Int'l Code: 1993-024A
Perigee: 599.6 km
Apogee: 624.7 km
Inclination: 82.5 °
Period: 96.8 minutes
Semi major axis: 6983 km
RCS: 9.205 m2 (large)
Launch date: April 16, 1993
Source: Commonwealth of Independent States (former USSR) (CIS)
Launch site: PLESETSK MISSILE AND SPACE COMPLEX (PKMTR)

Cosmos 2242 was a Russian ELINT (Electronic and Signals Intelligence) satellite.
aabbcc
Your satellite tracking list
Your tracking list is empty




NASA's NSSDC Master Catalog

Two Line Element Set (TLE):
1 22626U 93024A   17328.34724024 +.00000299 +00000-0 +30070-4 0  9997
2 22626 082.5233 250.8121 0017930 312.9136 047.0575 14.87738650329660
Source of the keplerian elements: AFSPC